Powrót do katalogu

FENGYUN 1C DEB

AktywnySSO
NORAD 30074·DEBRIS·🇨🇳 China

Wystrzelony May 10, 1999 z Taiyuan Satellite Launch Center

Loading…

Następne Przeloty (najbliższe 24 godziny)

TLE

ŚwieżeSource: Space-Track

Epoka: Sep 14, 2026, 16:22 UTC

1 30074U 99025QB  26257.68240402  .00001576  00000-0  81533-3 0  9999
2 30074  99.1126 334.2887 0095833  95.4291 265.7822 14.14100379  5318

Śledź FENGYUN 1C DEB w czasie rzeczywistym z AllMySat

Download on the App Store